Location: Newark
(53.3333°N, 83.7500°E)
Time: 02:40:15
(UTC+00:00)

SR - All Passes

Search period start: 19 November 2019 00:00
Search period end: 29 November 2019 00:00
Orbit: 574 x 882 km, 66.7° (Epoch: 18 November)

Date Brightness Start Highest point End Pass type
(mag) Time Alt. Az. Time Alt. Az. Time Alt. Az.
19 Nov - 08:53:12 10° S 08:58:09 39° ESE 09:03:28 10° NE daylight
19 Nov - 10:34:42 10° WSW 10:40:09 57° NW 10:45:57 10° NE daylight
19 Nov - 12:18:43 10° WNW 12:23:28 26° NNW 12:28:23 10° NE visible
19 Nov - 14:02:53 10° NW 14:07:28 23° N 14:12:07 10° ENE visible
19 Nov - 15:45:37 10° NW 15:51:10 39° NNE 15:56:40 10° E visible
19 Nov - 17:27:49 10° NW 17:33:47 72° SW 17:39:34 10° SSE visible
19 Nov - 19:11:18 10° WNW 19:14:58 17° WSW 19:18:34 10° SW night (unlit)
20 Nov - 08:04:42 10° SSE 08:08:52 23° ESE 08:13:16 10° ENE daylight
20 Nov - 09:44:51 10° SW 09:50:20 85° NW 09:56:14 10° NE daylight
20 Nov - 11:28:14 10° W 11:33:15 32° NNW 11:38:30 10° NE visible
20 Nov - 13:12:38 10° NW 13:17:08 22° N 13:21:42 10° NE visible
20 Nov - 14:55:51 10° NW 15:01:02 30° NNE 15:06:14 10° E visible
20 Nov - 16:38:05 10° NW 16:44:05 76° NE 16:49:56 10° SE visible
20 Nov - 18:20:47 10° NW 18:25:46 29° WSW 18:30:38 10° S night (unlit)
21 Nov - 07:17:19 10° SE 07:19:46 13° ESE 07:22:16 10° ENE daylight
21 Nov - 08:55:21 10° SSW 09:00:42 61° ESE 09:06:27 10° NE daylight
21 Nov - 10:37:51 10° WSW 10:43:09 42° NW 10:48:45 10° NE daylight
21 Nov - 12:22:13 10° WNW 12:26:47 23° N 12:31:27 10° NE visible
21 Nov - 14:05:58 10° NW 14:10:48 25° NNE 14:15:40 10° ENE visible
21 Nov - 15:48:23 10° NW 15:54:13 52° NE 15:59:57 10° ESE visible
21 Nov - 17:30:44 10° NW 17:36:24 47° WSW 17:41:54 10° S night (unlit)
22 Nov - 08:06:18 10° S 08:11:15 37° ESE 08:16:32 10° NE daylight
22 Nov - 09:47:43 10° WSW 09:53:11 59° NW 09:59:02 10° NE daylight
22 Nov - 11:31:42 10° WNW 11:36:29 26° NNW 11:41:27 10° NE visible
22 Nov - 13:15:55 10° NW 13:20:29 23° N 13:25:07 10° ENE visible
22 Nov - 14:58:41 10° NW 15:04:13 38° NNE 15:09:41 10° E visible
22 Nov - 16:40:53 10° NW 16:46:52 75° SW 16:52:39 10° SSE visible
22 Nov - 18:24:17 10° WNW 18:28:05 18° WSW 18:31:50 10° SW night (unlit)
23 Nov - 07:17:53 10° SSE 07:21:59 22° ESE 07:26:17 10° ENE daylight
23 Nov - 08:57:53 10° SW 09:03:24 88° NW 09:09:19 10° NE daylight
23 Nov - 10:41:13 10° W 10:46:17 32° NNW 10:51:35 10° NE daylight
23 Nov - 12:25:39 10° NW 12:30:09 22° N 12:34:43 10° NE visible
23 Nov - 14:08:54 10° NW 14:14:04 30° NNE 14:19:12 10° E visible
23 Nov - 15:51:09 10° NW 15:57:09 73° NE 16:02:59 10° SE visible
23 Nov - 17:33:48 10° NW 17:38:53 30° WSW 17:43:48 10° S night (unlit)
24 Nov - 06:30:41 10° SE 06:32:54 12° E 06:35:09 10° ENE daylight
24 Nov - 08:08:26 10° SSW 08:13:47 59° ESE 08:19:32 10° NE daylight
24 Nov - 09:50:52 10° WSW 09:56:12 43° NW 10:01:50 10° NE daylight
24 Nov - 11:35:12 10° WNW 11:39:48 23° N 11:44:30 10° NE visible
24 Nov - 13:19:00 10° NW 13:23:49 25° NNE 13:28:40 10° ENE visible
24 Nov - 15:01:27 10° NW 15:07:16 50° NE 15:12:58 10° ESE visible
24 Nov - 16:43:47 10° NW 16:49:30 49° WSW 16:55:01 10° SSE visible
24 Nov - 18:29:43 10° W 18:30:16 10° W 18:30:49 10° WSW night (unlit)
25 Nov - 07:19:26 10° S 07:24:21 36° ESE 07:29:35 10° NE daylight
25 Nov - 09:00:45 10° SW 09:06:15 61° NW 09:12:07 10° NE daylight
25 Nov - 10:44:41 10° WNW 10:49:31 27° NNW 10:54:31 10° NE visible
25 Nov - 12:28:55 10° NW 12:33:30 23° N 12:38:07 10° ENE visible
25 Nov - 14:11:45 10° NW 14:17:15 37° NNE 14:22:41 10° E visible
25 Nov - 15:53:58 10° NW 15:59:57 78° SW 16:05:44 10° SSE visible
25 Nov - 17:37:15 10° WNW 17:41:13 19° WSW 17:45:05 10° SSW night (unlit)
26 Nov - 06:31:04 10° SSE 06:35:06 21° ESE 06:39:19 10° ENE daylight
26 Nov - 08:10:56 10° SW 08:16:28 89° SE 08:22:23 10° NE daylight
26 Nov - 09:54:11 10° W 09:59:19 33° NNW 10:04:40 10° NE daylight
26 Nov - 11:38:38 10° NW 11:43:09 22° N 11:47:44 10° NE visible
26 Nov - 13:21:58 10° NW 13:27:06 29° NNE 13:32:13 10° E visible
26 Nov - 15:04:14 10° NW 15:10:12 71° NE 15:16:02 10° SE visible
26 Nov - 16:46:51 10° NW 16:51:59 31° WSW 16:56:58 10° S visible
27 Nov - 05:44:05 10° ESE 05:46:01 12° E 05:48:00 10° E daylight
27 Nov - 07:21:31 10° SSW 07:26:53 56° ESE 07:32:36 10° NE daylight
27 Nov - 09:03:51 10° WSW 09:09:14 44° NW 09:14:55 10° NE daylight
27 Nov - 10:48:11 10° WNW 10:52:49 24° N 10:57:33 10° NE visible
27 Nov - 12:32:03 10° NW 12:36:50 25° NNE 12:41:39 10° ENE visible
27 Nov - 14:14:32 10° NW 14:20:19 49° NE 14:25:59 10° ESE visible
27 Nov - 15:56:51 10° NW 16:02:36 51° WSW 16:08:08 10° SSE visible
27 Nov - 17:42:05 10° W 17:43:23 11° W 17:44:43 10° WSW night (unlit)
28 Nov - 06:32:33 10° S 06:37:27 34° ESE 06:42:38 10° NE daylight
28 Nov - 08:13:46 10° SW 08:19:19 64° NW 08:25:12 10° NE daylight
28 Nov - 09:57:40 10° WNW 10:02:32 27° NNW 10:07:34 10° NE daylight
28 Nov - 11:41:56 10° NW 11:46:31 23° N 11:51:08 10° NE visible
28 Nov - 13:24:49 10° NW 13:30:17 36° NNE 13:35:41 10° E visible
28 Nov - 15:07:02 10° NW 15:13:02 81° SW 15:18:48 10° SSE visible
28 Nov - 16:50:15 10° WNW 16:54:20 20° WSW 16:58:19 10° SSW visible
